Location: Bocianicha
(51.5066°N, 19.2563°E)
Time: 13:48:33
(UTC+00:00)

Cosmos 1943 Rocket - Pass Details

Date: 15 June 2025
Orbit: 810 x 843 km, 71.0° (Epoch: 17 July)

Event Time Altitude Azimuth Distance (km) Brightness Sun altitude
Exits shadow 00:17:31 14° 177° (S) 2,120 3.7 -12.4°
Maximum altitude 00:21:53 43° 110° (ESE) 1,124 2.9 -12.1°
Drops below altitude 10° 00:27:05 10° 40° (NE) 2,417 5.9 -11.8°
Sets 00:29:37 0° 34° (NE) 3,358 7.3 -11.6°
